QZS-2 (MICHIBIKI-2)

Last updated on Sun Apr 12 2026 00:02:54 GMT+0000 (Coordinated Universal Time)

1 42738U 17028A 26101.26140928 -.00000188 00000+0 00000+0 0 9990 2 42738 39.5333 244.1284 0741517 270.6769 278.1624 1.00251789 6952
UTC large
Height (km)
Speed (km/s)
/
Latitude / Longitude
Inclination (degrees)
Orbital Period (minutes)
Azimuth
Elevation
Range (km)
Doppler Factor

Next 0 passes for location: London (51.5072 / 0.1276)

Sorry there are no passes over London.
QZS-2 (MICHIBIKI-2)